CHINASAT 6A (ZX 6A)

Last updated on Jan. 20, 2020, 4:31 a.m. UTC

1 37150U 10042A   20019.26407337 -.00000359  00000-0  00000-0 0  9995
2 37150   0.0185 192.8625 0001252  32.1363 113.2254  1.00272239 34420
UTC
Height (km)
Latitude
Longitude
Inclination
Orbital Period
UTC large
Height (km)
Speed (km/s)
/
Latitude / Longitude
Inclination (degrees)
Orbital Period (minutes)
Azimuth
Elevation
Range (km)
Doppler Factor
iOS Compass Heading
iOS Angle

Next 30 passes for location: Hong Kong

Rise time Rise Azimuth (degrees) Set time Set Azimuth (degrees) Duration Max altitude (degrees)

No matching passes for this satellites